| time (UTC) | temp F | wind direction | speed knots | gust knots | rain 1hr in | rain 24hr in | rain mn in | humidity % | barometer mb |
| 20260504202256 | 77 | 155 | 4.3 | 7.0 | 0.00 | 0.00 | 0.00 | 34 | 1011.2 |
| 20260504201752 | 77 | 24 | 0.9 | 1.7 | 0.00 | 0.00 | 0.00 | 37 | 1011.2 |
| 20260504201249 | 76 | 46 | 0.0 | 0.0 | 0.00 | 0.00 | 0.00 | 41 | 1011.2 |
| 20260504200748 | 77 | 341 | 3.5 | 5.2 | 0.00 | 0.00 | 0.00 | 34 | 1011.5 |
| 20260504200243 | 78 | 106 | 1.7 | 2.6 | 0.00 | 0.00 | 0.00 | 36 | 1011.4 |
| 20260504195740 | 77 | 99 | 3.5 | 6.1 | 0.00 | 0.00 | 0.00 | 35 | 1011.5 |
| 20260504195236 | 77 | 328 | 0.9 | 1.7 | 0.00 | 0.00 | 0.00 | 38 | 1011.5 |
| 20260504194733 | 76 | 36 | 0.9 | 1.7 | 0.00 | 0.00 | 0.00 | 37 | 1011.7 |
| 20260504194229 | 76 | 307 | 1.7 | 3.5 | 0.00 | 0.00 | 0.00 | 34 | 1011.6 |
| 20260504193725 | 77 | 94 | 0.9 | 0.9 | 0.00 | 0.00 | 0.00 | 35 | 1011.8 |
| 20260504193223 | 77 | 350 | 3.5 | 3.5 | 0.00 | 0.00 | 0.00 | 35 | 1012.0 |
| 20260504192721 | 77 | 116 | 0.0 | 0.9 | 0.00 | 0.00 | 0.00 | 39 | 1011.9 |
| 20260504192219 | 76 | 25 | 0.0 | 0.9 | 0.00 | 0.00 | 0.00 | 38 | 1012.1 |
| 20260504191717 | 77 | 139 | 2.6 | 2.6 | 0.00 | 0.00 | 0.00 | 35 | 1012.1 |
| 20260504191214 | 77 | 330 | 0.9 | 1.7 | 0.00 | 0.00 | 0.00 | 36 | 1012.1 |
| 20260504190709 | 77 | 35 | 0.0 | 0.9 | 0.00 | 0.00 | 0.00 | 36 | 1012.3 |
| 20260504190206 | 76 | 19 | 0.9 | 0.9 | 0.00 | 0.00 | 0.00 | 39 | 1012.4 |
| 20260504185702 | 76 | 270 | 0.9 | 1.7 | 0.00 | 0.00 | 0.00 | 37 | 1012.4 |
| 20260504185159 | 76 | 55 | 0.9 | 1.7 | 0.00 | 0.00 | 0.00 | 40 | 1012.5 |
| 20260504184655 | 76 | 58 | 0.9 | 1.7 | 0.00 | 0.00 | 0.00 | 34 | 1012.5 |
| 20260504184150 | 76 | 54 | 0.9 | 0.9 | 0.00 | 0.00 | 0.00 | 37 | 1012.6 |
| 20260504183647 | 75 | 133 | 0.9 | 0.9 | 0.00 | 0.00 | 0.00 | 37 | 1012.8 |
| 20260504183145 | 76 | 137 | 3.5 | 3.5 | 0.00 | 0.00 | 0.00 | 37 | 1012.7 |
| 20260504182642 | 77 | 344 | 0.0 | 0.9 | 0.00 | 0.00 | 0.00 | 34 | 1012.8 |
| 20260504182140 | 75 | 35 | 0.9 | 1.7 | 0.00 | 0.00 | 0.00 | 36 | 1012.6 |
| 20260504181637 | 75 | 120 | 0.9 | 1.7 | 0.00 | 0.00 | 0.00 | 36 | 1012.8 |
| 20260504181134 | 75 | 327 | 0.9 | 1.7 | 0.00 | 0.00 | 0.00 | 35 | 1012.9 |
| 20260504180634 | 75 | 65 | 0.9 | 1.7 | 0.00 | 0.00 | 0.00 | 36 | 1012.9 |
| 20260504180132 | 75 | 23 | 0.9 | 0.9 | 0.00 | 0.00 | 0.00 | 36 | 1013.0 |
| 20260504175629 | 75 | 142 | 2.6 | 2.6 | 0.00 | 0.00 | 0.00 | 34 | 1013.2 |
| 20260504175125 | 74 | 30 | 3.5 | 6.1 | 0.00 | 0.00 | 0.00 | 35 | 1013.2 |
| 20260504174624 | 74 | 87 | 0.0 | 0.9 | 0.00 | 0.00 | 0.00 | 33 | 1013.1 |
| 20260504174119 | 75 | 91 | 0.9 | 0.9 | 0.00 | 0.00 | 0.00 | 34 | 1013.2 |
| 20260504173617 | 74 | 0 | 0.9 | 0.9 | 0.00 | 0.00 | 0.00 | 41 | 1013.4 |
| 20260504173115 | 74 | 59 | 4.3 | 7.0 | 0.00 | 0.00 | 0.00 | 34 | 1013.3 |
| 20260504172611 | 74 | 129 | 3.5 | 3.5 | 0.00 | 0.00 | 0.00 | 35 | 1013.5 |
| 20260504172107 | 73 | 21 | 0.9 | 0.9 | 0.00 | 0.00 | 0.00 | 36 | 1013.6 |
| 20260504171603 | 74 | 67 | 0.0 | 0.9 | 0.00 | 0.00 | 0.00 | 39 | 1013.6 |
| 20260504171101 | 73 | 204 | 3.5 | 6.1 | 0.00 | 0.00 | 0.00 | 33 | 1013.6 |
| 20260504170556 | 74 | 355 | 0.9 | 1.7 | 0.00 | 0.00 | 0.00 | 34 | 1013.6 |
| 20260504150940 | 70 | 223 | 3.5 | 5.2 | 0.00 | 0.00 | 0.00 | 37 | 1015.1 |
| 20260504150437 | 69 | 315 | 0.9 | 0.9 | 0.00 | 0.00 | 0.00 | 46 | 1014.9 |
| 20260504140904 | 66 | 23 | 0.9 | 0.9 | 0.00 | 0.00 | 0.00 | 46 | 1015.3 |
| 20260504140359 | 66 | 38 | 0.0 | 0.0 | 0.00 | 0.00 | 0.00 | 50 | 1015.3 |
| 20260504130325 | 60 | 352 | 0.9 | 0.9 | 0.00 | 0.00 | 0.00 | 52 | 1015.5 |
| 20260504120248 | 55 | 146 | 1.7 | 3.5 | 0.00 | 0.00 | 0.00 | 59 | 1015.9 |
| 20260504110715 | 51 | 64 | 0.0 | 0.0 | 0.00 | 0.00 | 0.00 | 69 | 1016.1 |
| 20260504110212 | 51 | 23 | 0.0 | 0.0 | 0.00 | 0.00 | 0.00 | 69 | 1016.1 |
| 20260504100136 | 50 | 4 | 0.0 | 0.0 | 0.00 | 0.00 | 0.00 | 70 | 1016.2 |
| 20260504081529 | 49 | 21 | 0.0 | 0.0 | 0.00 | 0.00 | 0.00 | 69 | 1016.5 |
| 20260504081025 | 48 | 354 | 0.0 | 0.0 | 0.00 | 0.00 | 0.00 | 70 | 1016.5 |
| 20260504080521 | 48 | 21 | 0.0 | 0.0 | 0.00 | 0.00 | 0.00 | 69 | 1016.4 |
| 20260504050334 | 46 | 56 | 0.0 | 0.0 | 0.00 | 0.00 | 0.00 | 67 | 1016.6 |
| 20260504045831 | 45 | 56 | 0.0 | 0.0 | 0.00 | 0.00 | 0.00 | 68 | 1016.7 |
| 20260504045326 | 45 | 57 | 0.0 | 0.0 | 0.00 | 0.00 | 0.00 | 70 | 1016.7 |
| 20260504044823 | 45 | 60 | 0.0 | 0.9 | 0.00 | 0.00 | 0.00 | 71 | 1016.7 |
| 20260504044320 | 45 | 54 | 0.0 | 0.0 | 0.00 | 0.00 | 0.00 | 72 | 1016.8 |
| 20260504043817 | 45 | 63 | 0.0 | 0.9 | 0.00 | 0.00 | 0.00 | 72 | 1016.7 |
| 20260504043314 | 45 | 76 | 0.0 | 0.9 | 0.00 | 0.00 | 0.00 | 73 | 1016.7 |
| 20260504042812 | 44 | 83 | 0.9 | 0.9 | 0.00 | 0.00 | 0.00 | 74 | 1016.6 |
| 20260504042308 | 44 | 75 | 0.0 | 0.0 | 0.00 | 0.00 | 0.00 | 76 | 1016.6 |
| 20260504041805 | 44 | 90 | 0.0 | 0.0 | 0.00 | 0.00 | 0.00 | 76 | 1016.6 |
| 20260504041300 | 44 | 62 | 0.0 | 0.0 | 0.00 | 0.00 | 0.00 | 77 | 1016.6 |
| 20260504040757 | 44 | 71 | 0.0 | 0.0 | 0.00 | 0.00 | 0.00 | 80 | 1016.6 |
| 20260504040255 | 44 | 70 | 0.0 | 0.0 | 0.00 | 0.00 | 0.00 | 76 | 1016.7 |
| 20260504035750 | 44 | 36 | 0.0 | 0.0 | 0.00 | 0.00 | 0.00 | 79 | 1016.5 |
| 20260504035247 | 44 | 6 | 0.0 | 0.0 | 0.00 | 0.00 | 0.00 | 79 | 1016.4 |
| 20260504034745 | 44 | 50 | 0.0 | 0.0 | 0.00 | 0.00 | 0.00 | 79 | 1016.5 |
| 20260504034242 | 44 | 44 | 0.0 | 0.0 | 0.00 | 0.00 | 0.00 | 80 | 1016.4 |
| 20260504033740 | 44 | 49 | 0.0 | 0.0 | 0.00 | 0.00 | 0.00 | 81 | 1016.5 |
| 20260504033237 | 44 | 56 | 0.0 | 0.0 | 0.00 | 0.00 | 0.00 | 76 | 1016.3 |
| 20260504032734 | 45 | 50 | 0.0 | 0.0 | 0.00 | 0.00 | 0.00 | 75 | 1016.2 |
| 20260504032231 | 45 | 45 | 0.0 | 0.0 | 0.00 | 0.00 | 0.00 | 73 | 1016.3 |
| 20260504031727 | 45 | 47 | 0.0 | 0.0 | 0.00 | 0.00 | 0.00 | 73 | 1016.1 |
| 20260504031225 | 45 | 62 | 0.0 | 0.0 | 0.00 | 0.00 | 0.00 | 74 | 1016.1 |
| 20260504030721 | 45 | 48 | 0.0 | 0.0 | 0.00 | 0.00 | 0.00 | 75 | 1016.2 |
| 20260504030218 | 45 | 45 | 0.0 | 0.0 | 0.00 | 0.00 | 0.00 | 76 | 1016.1 |
| 20260504025715 | 45 | 70 | 0.0 | 0.9 | 0.00 | 0.00 | 0.00 | 77 | 1016.2 |
| 20260504025211 | 46 | 73 | 0.0 | 0.0 | 0.00 | 0.00 | 0.00 | 77 | 1016.2 |
| 20260504024709 | 45 | 47 | 0.0 | 0.0 | 0.00 | 0.00 | 0.00 | 71 | 1016.2 |
| 20260504024205 | 45 | 55 | 0.0 | 0.0 | 0.00 | 0.00 | 0.00 | 71 | 1016.2 |
| 20260504023702 | 46 | 42 | 0.0 | 0.0 | 0.00 | 0.00 | 0.00 | 71 | 1016.1 |
| 20260504023158 | 46 | 48 | 0.0 | 0.0 | 0.00 | 0.00 | 0.00 | 72 | 1016.2 |
| 20260504022654 | 46 | 48 | 0.0 | 0.0 | 0.00 | 0.00 | 0.00 | 74 | 1016.3 |
| 20260504022150 | 46 | 49 | 0.0 | 0.0 | 0.00 | 0.00 | 0.00 | 72 | 1016.3 |
| 20260504021648 | 47 | 49 | 0.0 | 0.0 | 0.00 | 0.00 | 0.00 | 74 | 1016.3 |
| 20260504021145 | 47 | 53 | 0.0 | 0.0 | 0.00 | 0.00 | 0.00 | 67 | 1016.1 |
| 20260504020642 | 47 | 59 | 0.0 | 0.0 | 0.00 | 0.00 | 0.00 | 68 | 1016.2 |
| 20260504020137 | 47 | 55 | 0.0 | 0.0 | 0.00 | 0.00 | 0.00 | 70 | 1016.0 |
| 20260504015634 | 47 | 50 | 0.0 | 0.0 | 0.00 | 0.00 | 0.00 | 72 | 1016.1 |
| 20260504015131 | 48 | 49 | 0.0 | 0.0 | 0.00 | 0.00 | 0.00 | 72 | 1015.9 |
| 20260504014626 | 48 | 57 | 0.0 | 0.0 | 0.00 | 0.00 | 0.00 | 70 | 1016.1 |
| 20260504014124 | 48 | 60 | 0.0 | 0.0 | 0.00 | 0.00 | 0.00 | 68 | 1016.1 |
| 20260504013621 | 48 | 49 | 0.0 | 0.0 | 0.00 | 0.00 | 0.00 | 68 | 1016.1 |
| 20260504013118 | 49 | 53 | 0.0 | 0.0 | 0.00 | 0.00 | 0.00 | 64 | 1016.0 |
| 20260504012615 | 49 | 51 | 0.0 | 0.0 | 0.00 | 0.00 | 0.00 | 64 | 1016.0 |
| 20260504012113 | 49 | 50 | 0.0 | 0.0 | 0.00 | 0.00 | 0.00 | 61 | 1016.0 |
| 20260504011610 | 50 | 54 | 0.0 | 0.9 | 0.00 | 0.00 | 0.00 | 65 | 1015.7 |
| 20260504011106 | 50 | 50 | 0.0 | 0.0 | 0.00 | 0.00 | 0.00 | 57 | 1015.8 |
| 20260504010602 | 50 | 50 | 0.0 | 0.0 | 0.00 | 0.00 | 0.00 | 58 | 1015.9 |
| 20260504010058 | 50 | 50 | 0.0 | 0.0 | 0.00 | 0.00 | 0.00 | 56 | 1015.8 |
| 20260504005555 | 51 | 47 | 0.0 | 0.0 | 0.00 | 0.00 | 0.00 | 57 | 1015.9 |
| 20260504005052 | 51 | 45 | 0.0 | 0.0 | 0.00 | 0.00 | 0.00 | 56 | 1015.8 |
| 20260504004550 | 52 | 50 | 0.0 | 0.0 | 0.00 | 0.00 | 0.00 | 61 | 1015.7 |
| 20260504004047 | 52 | 68 | 0.0 | 0.9 | 0.00 | 0.00 | 0.00 | 55 | 1015.8 |
| 20260504003543 | 53 | 56 | 0.0 | 0.0 | 0.00 | 0.00 | 0.00 | 51 | 1015.5 |
| 20260504003040 | 53 | 46 | 0.0 | 0.0 | 0.00 | 0.00 | 0.00 | 46 | 1015.5 |
| 20260504002537 | 54 | 42 | 0.0 | 0.0 | 0.00 | 0.00 | 0.00 | 46 | 1015.4 |
| 20260504002034 | 54 | 56 | 0.0 | 0.0 | 0.00 | 0.00 | 0.00 | 45 | 1015.5 |
| 20260504001532 | 55 | 62 | 0.0 | 0.0 | 0.00 | 0.00 | 0.00 | 44 | 1015.4 |
| 20260504001027 | 55 | 85 | 0.0 | 0.9 | 0.00 | 0.00 | 0.00 | 43 | 1015.4 |
| 20260504000525 | 56 | 85 | 0.0 | 0.9 | 0.00 | 0.00 | 0.00 | 42 | 1015.3 |
| 20260504000023 | 56 | 71 | 0.0 | 0.9 | 0.00 | 0.00 | 0.00 | 43 | 1015.3 |
| 20260503235521 | 57 | 76 | 0.0 | 0.9 | 0.00 | 0.00 | 0.00 | 40 | 1015.3 |
| 20260503235017 | 57 | 51 | 0.0 | 0.0 | 0.00 | 0.00 | 0.00 | 40 | 1015.1 |
| 20260503234515 | 58 | 76 | 0.0 | 0.9 | 0.00 | 0.00 | 0.00 | 40 | 1015.2 |
| 20260503234013 | 58 | 28 | 0.9 | 0.9 | 0.00 | 0.00 | 0.00 | 36 | 1015.1 |
| 20260503233509 | 58 | 41 | 0.0 | 0.0 | 0.00 | 0.00 | 0.00 | 37 | 1015.0 |
| 20260503233005 | 59 | 36 | 0.0 | 0.0 | 0.00 | 0.00 | 0.00 | 36 | 1015.0 |
| 20260503232502 | 59 | 102 | 0.0 | 0.9 | 0.00 | 0.00 | 0.00 | 37 | 1014.8 |
| 20260503232000 | 59 | 47 | 0.0 | 0.0 | 0.00 | 0.00 | 0.00 | 38 | 1015.0 |
| 20260503231457 | 59 | 151 | 0.9 | 0.9 | 0.00 | 0.00 | 0.00 | 37 | 1014.9 |
| 20260503230954 | 60 | 51 | 0.9 | 0.9 | 0.00 | 0.00 | 0.00 | 34 | 1014.9 |
| 20260503230450 | 59 | 83 | 0.0 | 0.9 | 0.00 | 0.00 | 0.00 | 39 | 1014.8 |
| 20260503225948 | 60 | 56 | 0.0 | 0.0 | 0.00 | 0.00 | 0.00 | 37 | 1014.9 |
| 20260503225444 | 60 | 29 | 0.0 | 0.0 | 0.00 | 0.00 | 0.00 | 37 | 1014.9 |
| 20260503224935 | 60 | 39 | 0.0 | 0.9 | 0.00 | 0.00 | 0.00 | 36 | 1014.9 |
| 20260503224432 | 60 | 95 | 0.9 | 0.9 | 0.00 | 0.00 | 0.00 | 38 | 1015.1 |
| 20260503223930 | 60 | 26 | 0.9 | 0.9 | 0.00 | 0.00 | 0.00 | 40 | 1015.0 |
| 20260503223427 | 60 | 73 | 1.7 | 1.7 | 0.00 | 0.00 | 0.00 | 36 | 1014.9 |
| 20260503222923 | 60 | 316 | 0.9 | 0.9 | 0.00 | 0.00 | 0.00 | 37 | 1014.8 |
| 20260503222422 | 61 | 349 | 0.9 | 0.9 | 0.00 | 0.00 | 0.00 | 34 | 1014.8 |
| 20260503221920 | 61 | 4 | 0.0 | 0.0 | 0.00 | 0.00 | 0.00 | 37 | 1015.0 |
| 20260503221418 | 61 | 5 | 0.9 | 1.7 | 0.00 | 0.00 | 0.00 | 38 | 1014.9 |
| 20260503220914 | 61 | 40 | 0.0 | 0.0 | 0.00 | 0.00 | 0.00 | 36 | 1015.1 |
| 20260503220410 | 61 | 195 | 1.7 | 1.7 | 0.00 | 0.00 | 0.00 | 37 | 1014.9 |
| 20260503215908 | 61 | 17 | 1.7 | 1.7 | 0.00 | 0.00 | 0.00 | 36 | 1015.0 |
| 20260503215404 | 61 | 32 | 0.9 | 0.9 | 0.00 | 0.00 | 0.00 | 38 | 1014.9 |
| 20260503214902 | 60 | 334 | 0.9 | 0.9 | 0.00 | 0.00 | 0.00 | 40 | 1015.0 |
| 20260503214359 | 60 | 2 | 0.9 | 0.9 | 0.00 | 0.00 | 0.00 | 36 | 1015.0 |
| 20260503213856 | 61 | 359 | 3.5 | 5.2 | 0.00 | 0.00 | 0.00 | 34 | 1014.9 |
| 20260503213354 | 61 | 57 | 0.0 | 0.9 | 0.00 | 0.00 | 0.00 | 36 | 1014.9 |
| 20260503212850 | 61 | 12 | 0.9 | 0.9 | 0.00 | 0.00 | 0.00 | 36 | 1014.9 |
| 20260503212349 | 61 | 22 | 0.0 | 0.0 | 0.00 | 0.00 | 0.00 | 39 | 1015.0 |
| 20260503211845 | 61 | 21 | 1.7 | 2.6 | 0.00 | 0.00 | 0.00 | 34 | 1014.9 |
| 20260503211342 | 61 | 21 | 0.9 | 0.9 | 0.00 | 0.00 | 0.00 | 36 | 1014.7 |
| 20260503210837 | 61 | 10 | 0.0 | 0.9 | 0.00 | 0.00 | 0.00 | 36 | 1014.9 |
| 20260503210335 | 61 | 17 | 0.9 | 0.9 | 0.00 | 0.00 | 0.00 | 37 | 1014.9 |
| 20260503205830 | 62 | 19 | 1.7 | 1.7 | 0.00 | 0.00 | 0.00 | 33 | 1014.9 |
| 20260503205327 | 62 | 34 | 0.0 | 0.9 | 0.00 | 0.00 | 0.00 | 36 | 1014.8 |
| 20260503204823 | 63 | 349 | 0.9 | 0.9 | 0.00 | 0.00 | 0.00 | 34 | 1014.9 |
| 20260503204321 | 62 | 41 | 1.7 | 1.7 | 0.00 | 0.00 | 0.00 | 38 | 1014.8 |
| 20260503203818 | 62 | 321 | 2.6 | 3.5 | 0.00 | 0.00 | 0.00 | 35 | 1015.1 |
| 20260503203315 | 62 | 343 | 0.9 | 0.9 | 0.00 | 0.00 | 0.00 | 38 | 1015.2 |
| 20260503202812 | 62 | 27 | 0.0 | 0.0 | 0.00 | 0.00 | 0.00 | 35 | 1015.3 |